Time,TemperatureF,DewpointF,PressureIn,WindDirection,WindDirectionDegrees,WindSpeedMPH,WindSpeedGustMPH,Humidity,HourlyPrecipIn,Conditions,Clouds,dailyrainin,SolarRadiationWatts/m^2,SoftwareType,DateUTC
2013-04-09 00:22:00,39.0,21.0,30.01,North,359,9.0,14.0,48,-99.99,,,-99.99,0.000000,,2013-04-09 07:22:00,
2013-04-09 00:32:00,39.0,21.0,30.01,North,359,9.0,14.0,48,-99.99,,,-99.99,0.000000,,2013-04-09 07:32:00,
2013-04-09 00:40:00,36.0,21.0,30.02,NW,317,8.0,12.0,54,-99.99,,,-99.99,0.000000,,2013-04-09 07:40:00,
2013-04-09 01:22:00,36.0,21.0,30.02,NW,317,8.0,12.0,54,-99.99,,,-99.99,0.000000,,2013-04-09 08:22:00,
2013-04-09 01:32:00,36.0,21.0,30.02,NW,317,8.0,12.0,54,-99.99,,,-99.99,0.000000,,2013-04-09 08:32:00,
2013-04-09 01:40:00,34.0,24.0,30.04,SSE,154,4.0,6.0,67,-99.99,,,-99.99,0.000000,,2013-04-09 08:40:00,
2013-04-09 02:22:00,34.0,24.0,30.04,SSE,154,4.0,6.0,67,-99.99,,,-99.99,0.000000,,2013-04-09 09:22:00,
2013-04-09 02:32:00,34.0,24.0,30.04,SSE,154,4.0,6.0,67,-99.99,,,-99.99,0.000000,,2013-04-09 09:32:00,
2013-04-09 02:40:00,36.0,20.0,30.03,NNW,331,4.0,8.0,51,-99.99,,,-99.99,0.000000,,2013-04-09 09:40:00,
2013-04-09 03:23:00,36.0,20.0,30.03,NNW,331,4.0,8.0,51,-99.99,,,-99.99,0.000000,,2013-04-09 10:23:00,
2013-04-09 03:32:00,36.0,20.0,30.03,NNW,331,4.0,8.0,51,-99.99,,,-99.99,0.000000,,2013-04-09 10:32:00,
2013-04-09 03:40:00,33.0,22.0,30.03,NW,311,3.0,5.0,65,-99.99,,,-99.99,0.000000,,2013-04-09 10:40:00,
2013-04-09 04:22:00,33.0,22.0,30.03,NW,311,3.0,5.0,65,-99.99,,,-99.99,0.000000,,2013-04-09 11:22:00,
2013-04-09 04:32:00,33.0,22.0,30.03,NW,311,3.0,5.0,65,-99.99,,,-99.99,0.000000,,2013-04-09 11:32:00,
2013-04-09 04:40:00,32.0,22.0,30.05,NW,308,3.0,4.0,65,-99.99,,,-99.99,0.000000,,2013-04-09 11:40:00,
2013-04-09 05:22:00,32.0,22.0,30.05,NW,308,3.0,4.0,65,-99.99,,,-99.99,0.000000,,2013-04-09 12:22:00,
2013-04-09 05:32:00,32.0,22.0,30.05,NW,308,3.0,4.0,65,-99.99,,,-99.99,0.000000,,2013-04-09 12:32:00,
2013-04-09 05:40:00,32.0,23.0,30.06,NNW,341,5.0,8.0,71,-99.99,,,-99.99,0.000000,,2013-04-09 12:40:00,
2013-04-09 06:22:00,32.0,23.0,30.06,NNW,341,5.0,8.0,71,-99.99,,,-99.99,0.000000,,2013-04-09 13:22:00,
2013-04-09 06:32:00,32.0,23.0,30.06,NNW,341,5.0,8.0,71,-99.99,,,-99.99,0.000000,,2013-04-09 13:32:00,
2013-04-09 06:40:00,27.0,22.0,30.09,West,263,2.0,5.0,83,-99.99,,,-99.99,10.000000,,2013-04-09 13:40:00,
2013-04-09 07:32:00,27.0,22.0,30.09,West,263,2.0,5.0,83,-99.99,,,-99.99,10.000000,,2013-04-09 14:32:00,
2013-04-09 07:40:00,32.0,22.0,30.12,South,181,1.0,2.0,66,-99.99,,,-99.99,180.000000,,2013-04-09 14:40:00,
2013-04-09 08:22:00,32.0,22.0,30.12,South,181,1.0,2.0,66,-99.99,,,-99.99,180.000000,,2013-04-09 15:22:00,
2013-04-09 08:33:00,32.0,22.0,30.12,South,181,1.0,2.0,66,-99.99,,,-99.99,180.000000,,2013-04-09 15:33:00,
2013-04-09 08:40:00,38.0,21.0,30.13,NW,305,1.0,3.0,50,-99.99,,,-99.99,400.000000,,2013-04-09 15:40:00,
2013-04-09 09:23:00,38.0,21.0,30.13,NW,305,1.0,3.0,50,-99.99,,,-99.99,400.000000,,2013-04-09 16:23:00,
2013-04-09 09:33:00,38.0,21.0,30.13,NW,305,1.0,3.0,50,-99.99,,,-99.99,400.000000,,2013-04-09 16:33:00,
2013-04-09 09:40:00,40.0,22.0,30.13,NNE,12,6.0,9.0,49,-99.99,,,-99.99,620.000000,,2013-04-09 16:40:00,
2013-04-09 10:23:00,40.0,22.0,30.13,NNE,12,6.0,9.0,49,-99.99,,,-99.99,620.000000,,2013-04-09 17:23:00,
2013-04-09 10:32:00,40.0,22.0,30.13,NNE,12,6.0,9.0,49,-99.99,,,-99.99,620.000000,,2013-04-09 17:32:00,
2013-04-09 10:40:00,43.0,19.0,30.13,NNE,16,6.0,11.0,38,-99.99,,,-99.99,780.000000,,2013-04-09 17:40:00,
2013-04-09 11:32:00,43.0,19.0,30.13,NNE,16,6.0,11.0,38,-99.99,,,-99.99,780.000000,,2013-04-09 18:32:00,
2013-04-09 11:40:00,45.0,20.0,30.13,NW,319,4.0,8.0,37,-99.99,,,-99.99,900.000000,,2013-04-09 18:40:00,
2013-04-09 12:32:00,45.0,20.0,30.13,NW,319,4.0,8.0,37,-99.99,,,-99.99,900.000000,,2013-04-09 19:32:00,
2013-04-09 12:40:00,48.0,18.0,30.12,NNE,19,9.0,16.0,29,-99.99,,,-99.99,960.000000,,2013-04-09 19:40:00,
2013-04-09 13:22:00,48.0,18.0,30.12,NNE,19,9.0,16.0,29,-99.99,,,-99.99,960.000000,,2013-04-09 20:22:00,
2013-04-09 13:33:00,48.0,18.0,30.12,NNE,19,9.0,16.0,29,-99.99,,,-99.99,960.000000,,2013-04-09 20:33:00,
2013-04-09 16:40:00,54.0,16.0,30.11,North,5,12.0,21.0,22,-99.99,,,-99.99,570.000000,,2013-04-09 23:40:00,
2013-04-09 17:22:00,54.0,16.0,30.11,North,5,12.0,21.0,22,-99.99,,,-99.99,570.000000,,2013-04-10 00:22:00,
2013-04-09 17:32:00,54.0,16.0,30.11,North,5,12.0,21.0,22,-99.99,,,-99.99,570.000000,,2013-04-10 00:32:00,
2013-04-09 18:23:00,53.0,21.0,30.12,NNW,342,16.0,23.0,28,-99.99,,,-99.99,360.000000,,2013-04-10 01:23:00,
2013-04-09 18:40:00,52.0,18.0,30.13,North,349,13.0,17.0,26,-99.99,,,-99.99,150.000000,,2013-04-10 01:40:00,
2013-04-09 19:22:00,52.0,18.0,30.13,North,349,13.0,17.0,26,-99.99,,,-99.99,150.000000,,2013-04-10 02:22:00,
2013-04-09 19:32:00,52.0,18.0,30.13,North,349,13.0,17.0,26,-99.99,,,-99.99,150.000000,,2013-04-10 02:32:00,
2013-04-09 19:40:00,45.0,17.0,30.14,NNE,30,4.0,8.0,32,-99.99,,,-99.99,0.000000,,2013-04-10 02:40:00,
2013-04-09 20:32:00,45.0,17.0,30.14,NNE,30,4.0,8.0,32,-99.99,,,-99.99,0.000000,,2013-04-10 03:32:00,
2013-04-09 23:40:00,33.0,21.0,30.23,South,188,1.0,5.0,62,-99.99,,,-99.99,0.000000,,2013-04-10 06:40:00,